Location: Newark
(29.9790°N, 31.1340°E)
Time: 18:21:29
(UTC+00:00)

A-11 Canister half - Pass Details

Date: 03 February 2020
Orbit: 1525 x 1684 km, 47.3° (Epoch: 17 February)

Event Time Altitude Azimuth Distance (km) Brightness Sun altitude
Rises 19:20:39 0° 310° (NW) 4,727 12.1 -49.3°
Reaches altitude 10° 19:23:41 10° 312° (NW) 3,760 11.4 -49.9°
Enters shadow 19:27:40 29° 316° (NW) 2,573 10.3 -50.7°
